Regional Weather Roundup
Issued by NWS

Home | Current Version | Previous Version | Text Only | Print | Product List | Glossary Off
Versions: 1 2 3 4 5 6 7 8 9 10 11 12 13 14 15 16 17 18 19 20 21 22 23 24 25 26 27 28 29 30 31 32 33 34 35 36 37 38 39 40 41 42 43 44 45 46 47 48 49 50

000
ASUS43 KIND 251609
RWRIN

WEATHER ROUNDUP FOR INDIANA
NATIONAL WEATHER SERVICE INDIANAPOLIS IN
1200 PM EDT TUE JUL 25 2017

NOTE: "FAIR" INDICATES FEW OR NO CLOUDS BELOW 12,000 FEET WITH NO
SIGNIFICANT WEATHER AND/OR OBSTRUCTIONS TO VISIBILITY.

* - STATION DOES NOT REPORT WEATHER SUCH AS PRECIPITATION OR FOG.

+ - STATION NOT QUALITY CONTROLLED BY THE NATIONAL WEATHER SERVICE.
    USE DATA WITH CAUTION...ESPECIALLY DEWPOINT AND RELATIVE
    HUMIDITY OBSERVATIONS.

INZ001>003-010>013-019-020-251700-
NORTHWEST INDIANA

CITY           SKY/WX    TMP DP  RH WIND       PRES   REMARKS
GARY /AIRPORT/ MOSUNNY   75  55  50 SE10      30.21F
KNOX *+        SUNNY     72  55  56 E9        30.22F
LA PORTE +     SUNNY     73  59  60 SE9       30.23F
MICHIGAN CITY+ SUNNY     73  57  56 SE9       30.23S
MONTICELLO +   SUNNY     73  54  50 E6        30.21S
RENSSELAER +   SUNNY     73  55  53 E10       30.21F
VALPARAISO     SUNNY     76  59  55 SE6       30.23S

$$

LMZ046-743>745-251700-
SOUTHERN LAKE MICHIGAN

STATION/POSITION TIME  TEMP    WIND        PRES    WAVE
                       AIR SEA DIR/SP/G            HT
                 (UTC) (F)     (DEG/KT/KT) (MB)    (FT)
BURNS HARBOR     1540   74     170/  8/ 13 1023.4F
MICHIGAN CITY    1540   71     130/ 11/ 13   N/A
5NW MICH CITY    1600   72 74  160/ 10/ 12   N/A     2

$$

INZ004-005-014>016-021>024-251700-
NORTH CENTRAL INDIANA

CITY           SKY/WX    TMP DP  RH WIND       PRES   REMARKS
ELKHART        SUNNY    N/A N/A N/A E5        30.23S
GOSHEN         SUNNY     75  50  41 SE10      30.24S
LOGANSPORT +   SUNNY     72  54  53 E12       30.24R
PERU/GRISSOM   SUNNY     73  55  52 E8        30.22S
ROCHESTER +    SUNNY     75  54  46 E8        30.24S
SOUTH BEND     SUNNY     74  50  42 SE14      30.23S
WARSAW +       SUNNY     72  52  49 SE9       30.24S

$$

INZ006>009-017-018-025>027-251700-
NORTHEAST INDIANA

CITY           SKY/WX    TMP DP  RH WIND       PRES   REMARKS
AUBURN +       SUNNY     72  48  43 NE10      30.26S
FORT WAYNE     MOSUNNY   72  50  45 E9        30.25S
HUNTINGTON +   SUNNY     71  52  50 E6        30.24S
KENDALLVILLE + SUNNY     72  52  49 E7        30.25S

$$

INZ028-029-035-036-043>045-051>053-251700-
WEST CENTRAL INDIANA

CITY           SKY/WX    TMP DP  RH WIND       PRES   REMARKS
GREENCASTLE +  SUNNY     73  59  60 E8        30.20S
LAFAYETTE      SUNNY     74  58  57 SE12      30.20S
TERRE HAUTE    SUNNY     76  63  64 VRB7      30.17F

$$

INZ030>032-037>040-046>048-054>057-064-065-251700-
CENTRAL INDIANA

CITY           SKY/WX    TMP DP  RH WIND       PRES   REMARKS
ANDERSON       SUNNY     73  57  56 MISG      30.23R
CP ATTERBURY + SUNNY     73  59  60 E7        30.20S
COLUMBUS       MOSUNNY   73  55  53 E7        30.20F
FRANKFORT +    SUNNY     76  59  56 SE9       30.23S
GREENWOOD *+   SUNNY    N/A N/A N/A E7        30.21S
INDIANAPOLIS   MOSUNNY   75  55  49 E12       30.19S
-EAGLE CREEK   SUNNY     75  54  47 E12       30.20S
KOKOMO +       SUNNY     73  58  59 E8        30.24R
MARION +       SUNNY     72  55  56 E8        30.24S
MT COMFORT *+  SUNNY     72  57  60 E9        30.22S
SHELBYVILLE    SUNNY     75  58  55 E8        30.20R
ZIONSVILLE +   SUNNY    N/A N/A N/A E10       30.22S

$$

INZ033-034-041-042-049-050-058-059-251700-
EAST CENTRAL INDIANA

CITY           SKY/WX    TMP DP  RH WIND       PRES   REMARKS
MUNCIE         SUNNY     74  54  49 E8        30.23S
RICHMOND +     SUNNY     70  55  60 NE9       30.24S

$$

INZ060-061-067>069-081>083-085>088-251700-
SOUTHWEST INDIANA

CITY           SKY/WX    TMP DP  RH WIND       PRES   REMARKS
EVANSVILLE     SUNNY     80  68  66 E6        30.13S
HUNTINGBURG *+ SUNNY     79  69  71 E7        30.14F

$$

INZ062-063-066-070>080-084-089>092-251700-
SOUTH CENTRAL AND SOUTHEAST INDIANA

CITY           SKY/WX    TMP DP  RH WIND       PRES   REMARKS
BEDFORD +      SUNNY     77  63  61 E8        30.16S
BLOOMINGTON    SUNNY     76  60  57 E8        30.18S
MADISON *+     SUNNY     77  59  53 E7        30.20S
NORTH VERNON + SUNNY     73  61  64 E6        30.19F
SEYMOUR +      SUNNY    N/A N/A N/A E5        30.17F

$$




USA.gov is the U.S. government's official web portal to all federal, state and local government web resources and services.